Regional Weather Roundup
Issued by NWS Wilmington, NC

Home | Current Version | Previous Version | Text Only | Print | Product List | Glossary On
Versions: 1 2 3 4 5 6 7 8 9 10 11 12 13 14 15 16 17 18 19 20 21 22 23 24 25 26 27 28 29 30 31 32 33 34 35 36 37 38 39 40 41 42 43 44 45 46 47 48 49 50
000
ASUS42 KILM 302313
RWRILM
RWRILM
REGIONAL HOURLY WEATHER ROUNDUP
NATIONAL WEATHER SERVICE WILMINGTON NC
700 PM EDT THU JUL 30 2015

NOTE: "FAIR" INDICATES FEW OR NO CLOUDS BELOW 12,000 FEET WITH NO
SIGNIFICANT WEATHER AND/OR OBSTRUCTIONS TO VISIBILITY.

...............WFO WILMINGTON COUNTY WARNING AREA...............

......COASTAL NC AND SC COUNTIES......

CITY           SKY/WX    TMP DP  RH WIND       PRES   REMARKS
WILMINGTON     SUNNY     85  74  69 E7        29.86S HX  92
N MYRTLE BEACH SUNNY     86  76  71 SE6       29.85F HX  96
MYRTLE BEACH   SUNNY     88  73  62 S8        29.87S HX  96

......INLAND NC AND SC COUNTIES.......

CITY           SKY/WX    TMP DP  RH WIND       PRES   REMARKS
LUMBERTON      MOSUNNY   94  70  45 SE5       29.83S HX 100
ELIZABETHTOWN  SUNNY     93  67  42 CALM      29.84F HX  96
WHITEVILLE     SUNNY     92  71  50 CALM      29.84S HX  98
FLORENCE       MOSUNNY   92  72  51 NW7       29.84F HX  99
DARLINGTON     SUNNY     88  72  58 W3        29.86S HX  94

....................REST OF NORTH CAROLINA......................

.........EASTERN NC.........

CITY           SKY/WX    TMP DP  RH WIND       PRES   REMARKS
CAPE HATTERAS  MOSUNNY   84  74  71 S13       29.90S HX  91
JACKSONVILLE   MOSUNNY   88  72  58 SE10      29.86S HX  94
MOREHEAD CITY  SUNNY     83  75  77 SE8       29.88F HX  90
KENANSVILLE    SUNNY    N/A N/A N/A E3        29.86S
NEW BERN       MOSUNNY   88  73  61 S9        29.87F HX  95
ELIZABETH CITY MOSUNNY   87  76  69 S12       29.87F HX  97

.........CENTRAL NC.........

CITY           SKY/WX    TMP DP  RH WIND       PRES   REMARKS
RALEIGH DURHAM PTSUNNY   87  75  67 CALM      29.87S HX  96
ROCKY MOUNT    PTSUNNY   92  71  50 S6        29.85S HX  98
ROANOKE RAPIDS NOT AVBL
FAYETTEVILLE   SUNNY     93  71  48 CALM      29.83F HX 100
HOFFMAN        PTSUNNY   92  72  51 E2        29.84R HX  99

.........WESTERN NC.........

CITY           SKY/WX    TMP DP  RH WIND       PRES   REMARKS
CHARLOTTE      MOSUNNY   94  65  38 NE6       29.88F HX  96
GREENSBORO     PTSUNNY   91  69  48 NW3       29.88F HX  96
HICKORY        NOT AVBL
BOONE          NOT AVBL
ASHEVILLE      NOT AVBL

.....................REST OF SOUTH CAROLINA.....................

.........EASTERN SC.........

CITY           SKY/WX    TMP DP  RH WIND       PRES   REMARKS
CHARLESTON     MOSUNNY   89  72  56 S13       29.86S HX  96
BEAUFORT MCAS  MOSUNNY   91  74  57 S8        29.86F HX 100
HILTON HEAD    SUNNY     88  68  51 S3        29.88F HX  91

.........CENTRAL SC.........

CITY           SKY/WX    TMP DP  RH WIND       PRES   REMARKS
COLUMBIA       PTSUNNY   92  69  47 S7        29.86S HX  97
ORANGEBURG     PTSUNNY   83  72  69 W6        29.88S
SUMTER SHAW    PTSUNNY   83  72  67 W2        29.84F

.........WESTERN SC.........

CITY           SKY/WX    TMP DP  RH WIND       PRES   REMARKS
GREENVILLE     NOT AVBL
ROCK HILL      SUNNY     94  70  45 NW5       29.88F HX 100
ANDERSON       SUNNY     95  70  44 N5        29.89F HX 101
CLEMSON        NOT AVBL
GREENWOOD      SUNNY     94  70  45 SE5       29.89F HX 100


...................COASTAL AND OFFSHORE REPORTS..................

................LOCAL PIERS AND NC RESERVE................


STATION/POSITION TIME  SKY/WX   TEMP    WIND        PRES    VSBY
                                AIR SEA DIR/SP/G
                 (UTC)          (F)     (DEG/KT/KT) (MB)    (MI)
JOHNY MRCER PIER 2200            84 87  120/  9/ 10 1011.0R
NC RESRV MASNBRO NOT AVBL
OCEAN CREST PIER NOT AVBL
SPRINGMAID  PIER 2200            85 87  130/  7/  8 1011.2S


................COASTAL AND OFFSHORE BUOYS................


STATION/POSITION TIME  SKY/WX   TEMP    WIND        PRES    VSBY
                                AIR SEA DIR/SP/G
                 (UTC)          (F)     (DEG/KT/KT) (MB)    (MI)
DIMNDSHOAL 41025 2250            83 86  170/ 16/ 19 1012.4R
WVE H/P(F/S)=  5/ 6 WND WVE H/P(F/S)=  3/ 6 SWL H/P/D(F/S/D)=  2/ 90/10

CAPE LOOKOUT     2300            82     140/  9/  9 1011.6F
ONSLOW BAY 41036 NOT AVBL
5 WRITEBCH 41038 2208            83 83  130/ 10/ 14 1011.2R
MASONBORO  41110 2219               83                N/A
WVE H/P(F/S)=  3/ 8 WND WVE H/P(F/S)=  3/ 8

WILM HARBR 41108 2211               84                N/A
WVE H/P(F/S)=  3/ 8 WND WVE H/P(F/S)=  3/ 8

27WRITEBCH 41037 2200            80 83  140/ 10/ 12   N/A
FRYING PAN 41013 2250            85 85  100/  6/  8 1011.0F
WVE H/P(F/S)=  3/ 8 WND WVE H/P(F/S)=  2/ 4 SWL H/P/D(F/S/D)=  3/160/ 8

SUNST NRSH 41024 2208            84     170/  6/  8 1010.9S
CAPRS NRSH 41029 2208            84     200/ 10/ 12 1011.3F
EDISTO     41004 2250            85 85  250/  4/  6 1010.8F
WVE H/P(F/S)=  2/ 7 WND WVE H/P(F/S)=  2/ 4 SWL H/P/D(F/S/D)=  2/ 7



..........OFFSHORE BUOYS BEYOND 100 NM OFFSHORE...........
.....IN A TRIANGLE---HAT TO BERMUDA TO BAHAMAS TO HAT.....


STATION/POSITION TIME  SKY/WX   TEMP    WIND        PRES    VSBY
                                AIR SEA DIR/SP/G
                 (UTC)          (F)     (DEG/KT/KT) (MB)    (MI)
150E HAT   41001 2300            82 83  180/ 19/ 25 1015.0R
W BERMUDA  41048 2250            82 81  200/ 12/ 16 1018.4R
WVE H/P(F/S)=  4/ 7 WND WVE H/P(F/S)=  3/ 4 SWL H/P/D(F/S/D)=  3/270/ 7

ATLANTIC S 41049 2250            84 86  110/  4/  4 1021.7R
WVE H/P(F/S)=  4/ 8 SWL H/P/D(F/S/D)=  3/120/ 8

E BAHAMAS  41046 2250            84 85  110/  8/ 10 1019.0R
WVE H/P(F/S)=  4/ 9 WND WVE H/P(F/S)=  2/ 4 SWL H/P/D(F/S/D)=  3/ 70/ 9

NE BAHAMAS 41047 2250            84 85  170/ 10/ 12 1018.4S
WVE H/P(F/S)=  3/ 8 WND WVE H/P(F/S)=  2/ 4 SWL H/P/D(F/S/D)=  3/100/ 8

120E CANVRL41010 2220            83 84  230/ 10/ 12 1014.3R

END



USA.gov is the U.S. government's official web portal to all federal, state and local government web resources and services.